{"data":{"norad_id":63847,"epoch":"2026-05-24T23:55:27.104736Z","epoch_age_seconds":82282,"freshness":"FRESH","line1":"1 63847U 25093M   26144.99684149  .00015455  00000+0  56969-3 0  9991","line2":"2 63847  43.0015   6.8534 0001256 277.9635  82.1074 15.27596195 59648","mean_motion":15.27596195,"eccentricity":0.0001256,"inclination_deg":43.0015,"raan_deg":6.8534,"arg_perigee_deg":277.9635,"mean_anomaly_deg":82.1074,"bstar":0.00056969,"rev_number":5964,"period_min":94.265749333056,"perigee_km":482.13884392905,"apogee_km":483.86236169487,"semimajor_km":6861.137602812,"source":"CELESTRAK","updated_at":"2026-05-25T13:38:20.148385Z"}}